NATO401 ETNL-EGYM

Flight info

Callsign NATO401
Flight time 1h 22m
Altitude 32000
Route LAG WISMA HAMFO NDO WTM MC4 LWD STAY1/0015 LWD/N0420F300 MC3 MC2 NAVPI EA1 MAM
Aircraft VF35/M-SDRTUY/LB1

Departure

Time 2026-04-30 18:33
Airport Rostock-Laage Airport (ETNL)

Arrival

Time 2026-04-30 19:55
Airport RAF Marham (EGYM)
Time Latitude Longitude Altitude Speed Heading
2026-04-30 18:20 53.92156 12.26856 156 ft 0 kts 162°
2026-04-30 18:25 53.92154 12.26858 153 ft 3 kts 162°
2026-04-30 18:26 53.92130 12.27032 153 ft 10 kts 99°
2026-04-30 18:26 53.92131 12.27133 152 ft 8 kts 44°
2026-04-30 18:26 53.92169 12.27201 148 ft 10 kts 95°
2026-04-30 18:27 53.92154 12.27452 143 ft 12 kts 94°
2026-04-30 18:27 53.92145 12.27596 142 ft 12 kts 94°
2026-04-30 18:28 53.92132 12.27903 139 ft 14 kts 93°
2026-04-30 18:28 53.92110 12.28036 140 ft 10 kts 101°
2026-04-30 18:28 53.92088 12.28314 141 ft 16 kts 97°
2026-04-30 18:29 53.92074 12.28500 141 ft 15 kts 98°
2026-04-30 18:29 53.92028 12.28984 140 ft 14 kts 98°
2026-04-30 18:30 53.91967 12.29221 139 ft 12 kts 178°
2026-04-30 18:30 53.91939 12.29415 142 ft 14 kts 97°
2026-04-30 18:31 53.91925 12.29577 142 ft 13 kts 96°
2026-04-30 18:31 53.91882 12.29788 146 ft 4 kts 175°
2026-04-30 18:32 53.91789 12.29773 154 ft 12 kts 191°
2026-04-30 18:32 53.91722 12.29741 155 ft 9 kts 188°
2026-04-30 18:32 53.91675 12.29606 151 ft 26 kts 277°
2026-04-30 18:33 53.91794 12.28159 274 ft 191 kts 278°
2026-04-30 18:33 53.91973 12.25806 1467 ft 224 kts 280°
2026-04-30 18:33 53.91850 12.21016 4234 ft 201 kts 249°
2026-04-30 18:34 53.91246 12.18522 5227 ft 264 kts 248°
2026-04-30 18:34 53.89753 12.12506 6795 ft 289 kts 248°
2026-04-30 18:34 53.88969 12.09395 7513 ft 291 kts 248°
2026-04-30 18:35 53.88159 12.06191 8275 ft 298 kts 249°
2026-04-30 18:35 53.87667 12.02799 9063 ft 302 kts 264°
2026-04-30 18:35 53.87415 11.99264 9854 ft 303 kts 267°
2026-04-30 18:36 53.86993 11.91873 11389 ft 362 kts 263°
2026-04-30 18:36 53.86454 11.87005 12205 ft 478 kts 260°
2026-04-30 18:36 53.85309 11.75436 13767 ft 504 kts 261°
2026-04-30 18:37 53.84694 11.69623 14525 ft 513 kts 261°
2026-04-30 18:37 53.84098 11.63664 15239 ft 513 kts 262°
2026-04-30 18:37 53.83490 11.57653 15987 ft 520 kts 261°
2026-04-30 18:37 53.82862 11.51619 16745 ft 523 kts 262°
2026-04-30 18:38 53.82239 11.45513 17517 ft 528 kts 262°
2026-04-30 18:38 53.81595 11.39370 18321 ft 534 kts 262°
2026-04-30 18:38 53.80942 11.33148 19073 ft 538 kts 262°
2026-04-30 18:38 53.80288 11.26901 19780 ft 543 kts 262°
2026-04-30 18:39 53.79614 11.20553 20192 ft 547 kts 262°
2026-04-30 18:39 53.78940 11.14223 20361 ft 548 kts 262°
2026-04-30 18:39 53.78262 11.07877 20411 ft 548 kts 262°
2026-04-30 18:39 53.77579 11.01533 20439 ft 548 kts 261°
2026-04-30 18:40 53.76895 10.95207 20606 ft 542 kts 261°
2026-04-30 18:40 53.76206 10.88865 21364 ft 552 kts 261°
2026-04-30 18:40 53.75509 10.82485 22139 ft 555 kts 261°
2026-04-30 18:40 53.74730 10.75390 23024 ft 563 kts 261°
2026-04-30 18:41 53.74090 10.69592 23753 ft 565 kts 261°
2026-04-30 18:41 53.73309 10.62559 24555 ft 569 kts 261°
2026-04-30 18:41 53.72628 10.56449 25225 ft 569 kts 261°
2026-04-30 18:41 53.71913 10.50092 25949 ft 556 kts 261°
2026-04-30 18:42 53.71191 10.43660 26700 ft 548 kts 261°
2026-04-30 18:42 53.69766 10.31117 28238 ft 543 kts 261°
2026-04-30 18:42 53.69131 10.24885 29048 ft 536 kts 266°
2026-04-30 18:45 53.71848 9.63568 32425 ft 522 kts 277°
2026-04-30 18:45 53.72188 9.57464 32424 ft 522 kts 277°
2026-04-30 18:46 53.72852 9.45249 32424 ft 522 kts 277°
2026-04-30 18:46 53.73184 9.39123 32428 ft 535 kts 277°
2026-04-30 18:46 53.73524 9.32744 32422 ft 547 kts 277°
2026-04-30 18:47 53.74196 9.19926 32429 ft 549 kts 277°
2026-04-30 18:47 53.74854 9.07066 32428 ft 550 kts 276°
2026-04-30 18:48 53.75502 8.94163 32426 ft 550 kts 276°
2026-04-30 18:48 53.76131 8.81363 32423 ft 550 kts 276°
2026-04-30 18:49 53.76553 8.68438 32440 ft 551 kts 265°
2026-04-30 18:49 53.74891 8.55746 32450 ft 556 kts 250°
2026-04-30 18:50 53.71915 8.43656 32435 ft 556 kts 252°
2026-04-30 18:50 53.70225 8.30978 32437 ft 554 kts 262°
2026-04-30 18:51 53.69084 8.18206 32431 ft 553 kts 263°
2026-04-30 18:51 53.68028 8.05354 32420 ft 553 kts 263°
2026-04-30 18:52 53.66995 7.92492 32408 ft 553 kts 263°
2026-04-30 18:52 53.65969 7.79617 32400 ft 553 kts 263°
2026-04-30 18:53 53.64945 7.66754 32398 ft 556 kts 263°
2026-04-30 18:53 53.63921 7.53886 32402 ft 554 kts 263°
2026-04-30 18:54 53.63015 7.42519 32406 ft 555 kts 263°
2026-04-30 18:54 53.61868 7.28170 32408 ft 555 kts 263°
2026-04-30 18:55 53.60833 7.15259 32406 ft 555 kts 263°
2026-04-30 18:55 53.58586 6.96138 32033 ft 559 kts 245°
2026-04-30 18:56 53.55093 6.85249 30582 ft 491 kts 240°
2026-04-30 18:56 53.53414 6.80464 29745 ft 467 kts 239°
2026-04-30 18:56 53.51757 6.75790 28914 ft 462 kts 239°
2026-04-30 18:57 53.48910 6.66260 27323 ft 452 kts 245°
2026-04-30 18:57 53.47559 6.61519 26753 ft 447 kts 242°
2026-04-30 18:57 53.46184 6.56854 26524 ft 447 kts 244°
2026-04-30 18:58 53.43505 6.47455 26398 ft 446 kts 243°
2026-04-30 18:58 53.42145 6.42765 26388 ft 447 kts 243°
2026-04-30 18:58 53.40801 6.38074 26385 ft 446 kts 243°
2026-04-30 18:59 53.38546 6.30315 26379 ft 446 kts 243°
2026-04-30 19:00 53.34513 6.16249 24426 ft 441 kts 244°
2026-04-30 19:00 53.33238 6.11669 22651 ft 428 kts 240°
2026-04-30 19:00 53.30550 6.02963 19460 ft 414 kts 243°
2026-04-30 19:01 53.28054 5.94465 16508 ft 399 kts 240°
2026-04-30 19:01 53.26850 5.90389 15140 ft 393 kts 241°
2026-04-30 19:02 53.24509 5.82206 12207 ft 387 kts 241°
2026-04-30 19:02 53.22986 5.74440 9627 ft 331 kts 259°
2026-04-30 19:03 53.22516 5.66751 7287 ft 335 kts 268°
2026-04-30 19:03 53.22704 5.59140 5632 ft 315 kts 272°
2026-04-30 19:04 53.23146 5.52320 5123 ft 288 kts 274°
2026-04-30 19:04 53.23656 5.45701 5023 ft 287 kts 275°
2026-04-30 19:05 53.23988 5.39080 5013 ft 283 kts 264°
2026-04-30 19:05 53.22340 5.33493 5132 ft 269 kts 218°
2026-04-30 19:06 53.19157 5.30693 5134 ft 256 kts 187°
2026-04-30 19:06 53.17396 5.30444 5050 ft 253 kts 175°
2026-04-30 19:06 53.14181 5.32090 4670 ft 242 kts 142°
2026-04-30 19:07 53.12467 5.36807 4222 ft 246 kts 105°
2026-04-30 19:07 53.12210 5.39644 3965 ft 246 kts 101°
2026-04-30 19:08 53.11860 5.45294 3434 ft 243 kts 98°
2026-04-30 19:08 53.12930 5.50546 3105 ft 261 kts 56°
2026-04-30 19:08 53.14042 5.52861 2847 ft 252 kts 59°
2026-04-30 19:09 53.16022 5.57493 1876 ft 230 kts 63°
2026-04-30 19:09 53.16782 5.59518 1400 ft 196 kts 66°
2026-04-30 19:09 53.17456 5.61462 1284 ft 193 kts 66°
2026-04-30 19:10 53.18785 5.65230 1047 ft 179 kts 67°
2026-04-30 19:10 53.20013 5.68876 582 ft 184 kts 63°
2026-04-30 19:11 53.20639 5.70561 350 ft 168 kts 61°
2026-04-30 19:11 53.21926 5.73802 36 ft 147 kts 59°
2026-04-30 19:11 53.22362 5.74877 7 ft 83 kts 55°
2026-04-30 19:12 53.22639 5.75536 8 ft 60 kts 56°
2026-04-30 19:12 53.22846 5.76041 6 ft 41 kts 70°
2026-04-30 19:12 53.22854 5.76437 10 ft 31 kts 90°
2026-04-30 19:13 53.22627 5.76625 5 ft 21 kts 178°
2026-04-30 19:13 53.22330 5.76629 4 ft 21 kts 180°
2026-04-30 19:13 53.22183 5.76623 4 ft 21 kts 187°
2026-04-30 19:14 53.22043 5.76560 4 ft 21 kts 195°
2026-04-30 19:14 53.21903 5.76500 4 ft 19 kts 194°
2026-04-30 19:14 53.21841 5.76365 4 ft 16 kts 277°
2026-04-30 19:14 53.21855 5.76178 3 ft 16 kts 277°
2026-04-30 19:15 53.21870 5.75988 2 ft 17 kts 278°
2026-04-30 19:15 53.21887 5.75605 2 ft 16 kts 277°
2026-04-30 19:15 53.21909 5.75450 3 ft 0 kts 275°
2026-04-30 19:16 53.21909 5.75447 3 ft 2 kts 274°
2026-04-30 19:16 53.21897 5.75210 5 ft 10 kts 272°
2026-04-30 19:17 53.21899 5.75104 6 ft 8 kts 272°
2026-04-30 19:17 53.21905 5.74831 8 ft 15 kts 272°
2026-04-30 19:17 53.21909 5.74669 8 ft 13 kts 272°
2026-04-30 19:18 53.21895 5.74323 9 ft 20 kts 237°
2026-04-30 19:18 53.21797 5.74083 10 ft 18 kts 242°
2026-04-30 19:18 53.21848 5.73933 9 ft 16 kts 325°
2026-04-30 19:19 53.21946 5.73862 8 ft 15 kts 33°
2026-04-30 19:19 53.22016 5.74024 9 ft 70 kts 55°
2026-04-30 19:19 53.23586 5.77720 798 ft 240 kts 57°
2026-04-30 19:20 53.24648 5.80134 1646 ft 239 kts 61°
2026-04-30 19:20 53.25554 5.82236 2346 ft 246 kts 59°
2026-04-30 19:20 53.27531 5.87069 2912 ft 253 kts 64°
2026-04-30 19:21 53.28485 5.89562 2980 ft 254 kts 62°
2026-04-30 19:21 53.30480 5.94477 3728 ft 259 kts 62°
2026-04-30 19:22 53.32493 5.99532 5275 ft 261 kts 62°
2026-04-30 19:22 53.35393 6.07409 7544 ft 267 kts 63°
2026-04-30 19:23 53.38292 6.15578 9860 ft 277 kts 63°
2026-04-30 19:24 53.41291 6.21795 11451 ft 405 kts 36°
2026-04-30 19:24 53.43914 6.23644 12248 ft 420 kts 13°
2026-04-30 19:24 53.49638 6.21692 13880 ft 444 kts 326°
2026-04-30 19:25 53.52404 6.07711 16171 ft 454 kts 246°
2026-04-30 19:26 53.48024 6.00620 17653 ft 453 kts 206°
2026-04-30 19:26 53.42524 5.95485 19171 ft 461 kts 207°
2026-04-30 19:26 53.39763 5.92760 19886 ft 463 kts 208°
2026-04-30 19:27 53.34160 5.87208 21369 ft 470 kts 208°
2026-04-30 19:27 53.28470 5.81558 22939 ft 479 kts 209°
2026-04-30 19:28 53.25605 5.78652 23752 ft 485 kts 214°
2026-04-30 19:28 53.20746 5.70674 25218 ft 499 kts 227°
2026-04-30 19:29 53.16700 5.61118 26709 ft 513 kts 238°
2026-04-30 19:29 53.14735 5.56160 27472 ft 515 kts 233°
2026-04-30 19:30 53.08548 5.40981 29865 ft 553 kts 235°
2026-04-30 19:30 53.04201 5.30263 30317 ft 562 kts 235°
2026-04-30 19:31 52.99819 5.19455 30340 ft 564 kts 233°
2026-04-30 19:31 52.92994 5.03573 30325 ft 563 kts 233°
2026-04-30 19:32 52.88500 4.93064 30323 ft 563 kts 233°
2026-04-30 19:32 52.83949 4.82509 30319 ft 563 kts 233°
2026-04-30 19:33 52.79390 4.71974 30320 ft 563 kts 233°
2026-04-30 19:33 52.74815 4.61429 30324 ft 563 kts 233°
2026-04-30 19:34 52.70235 4.50918 30322 ft 563 kts 233°
2026-04-30 19:35 52.63382 4.35274 30325 ft 563 kts 232°
2026-04-30 19:35 52.58792 4.24851 30317 ft 562 kts 232°
2026-04-30 19:36 52.54197 4.14458 30308 ft 562 kts 233°
2026-04-30 19:36 52.49826 3.96950 30402 ft 570 kts 271°
2026-04-30 19:37 52.50671 3.83977 30331 ft 571 kts 277°
2026-04-30 19:37 52.51467 3.71039 30307 ft 570 kts 270°
2026-04-30 19:38 52.52001 3.58050 30296 ft 570 kts 271°
2026-04-30 19:38 52.52502 3.45058 30290 ft 570 kts 272°
2026-04-30 19:39 52.52987 3.32068 30288 ft 570 kts 272°
2026-04-30 19:39 52.53459 3.19395 30273 ft 570 kts 272°
2026-04-30 19:40 52.53936 3.06357 30286 ft 569 kts 272°
2026-04-30 19:40 52.54394 2.93356 30291 ft 570 kts 272°
2026-04-30 19:41 52.55136 2.80403 30284 ft 571 kts 278°
2026-04-30 19:41 52.57037 2.67701 30292 ft 571 kts 281°
2026-04-30 19:42 52.58740 2.55030 30283 ft 572 kts 282°
2026-04-30 19:42 52.60463 2.42255 30276 ft 572 kts 281°
2026-04-30 19:43 52.62197 2.29465 30278 ft 571 kts 281°
2026-04-30 19:44 52.64766 2.10281 30274 ft 572 kts 281°
2026-04-30 19:44 52.66450 1.97570 30233 ft 573 kts 281°
2026-04-30 19:44 52.67295 1.91149 29652 ft 571 kts 281°
2026-04-30 19:45 52.68128 1.84776 28986 ft 566 kts 281°
2026-04-30 19:45 52.68949 1.78472 28328 ft 560 kts 281°
2026-04-30 19:45 52.69762 1.72213 27701 ft 556 kts 280°
2026-04-30 19:45 52.70304 1.68014 27298 ft 552 kts 280°
2026-04-30 19:46 52.71355 1.59845 26476 ft 546 kts 280°
2026-04-30 19:46 52.71884 1.55721 25791 ft 539 kts 280°
2026-04-30 19:46 52.72640 1.49790 24846 ft 533 kts 280°
2026-04-30 19:46 52.73396 1.43851 23859 ft 521 kts 280°
2026-04-30 19:47 52.73916 1.38212 22700 ft 475 kts 270°
2026-04-30 19:47 52.73880 1.32980 21586 ft 440 kts 265°
2026-04-30 19:47 52.73679 1.28098 20484 ft 414 kts 262°
2026-04-30 19:47 52.73369 1.23467 19475 ft 401 kts 260°
2026-04-30 19:48 52.72919 1.18961 18316 ft 396 kts 256°
2026-04-30 19:48 52.72263 1.14633 16926 ft 382 kts 251°
2026-04-30 19:48 52.71571 1.10858 15450 ft 307 kts 249°
2026-04-30 19:48 52.71087 1.07703 14198 ft 278 kts 256°
2026-04-30 19:49 52.70774 1.04581 12922 ft 271 kts 258°
2026-04-30 19:49 52.71035 0.98437 10347 ft 271 kts 288°
2026-04-30 19:49 52.71881 0.95679 8985 ft 269 kts 299°
2026-04-30 19:50 52.72870 0.93117 7636 ft 262 kts 301°
2026-04-30 19:50 52.73876 0.90651 6395 ft 256 kts 302°
2026-04-30 19:50 52.74868 0.88234 5164 ft 252 kts 299°
2026-04-30 19:50 52.75557 0.85687 4010 ft 244 kts 277°
2026-04-30 19:51 52.75646 0.82931 2910 ft 239 kts 261°
2026-04-30 19:51 52.75338 0.80257 2122 ft 236 kts 236°
2026-04-30 19:51 52.74460 0.77866 1843 ft 232 kts 229°
2026-04-30 19:51 52.73605 0.75747 1715 ft 229 kts 229°
2026-04-30 19:52 52.72714 0.73582 1707 ft 227 kts 229°
2026-04-30 19:52 52.71817 0.71484 1697 ft 224 kts 226°
2026-04-30 19:52 52.70884 0.69385 1699 ft 227 kts 227°
2026-04-30 19:52 52.69990 0.67233 1662 ft 229 kts 227°
2026-04-30 19:53 52.69128 0.65215 1358 ft 216 kts 227°
2026-04-30 19:53 52.68224 0.63214 1100 ft 219 kts 229°
2026-04-30 19:53 52.67245 0.60830 1075 ft 307 kts 232°
2026-04-30 19:53 52.65920 0.57635 1135 ft 362 kts 232°
2026-04-30 19:54 52.64519 0.55309 1121 ft 196 kts 175°
2026-04-30 19:54 52.63406 0.54676 1122 ft 163 kts 216°
2026-04-30 19:54 52.62766 0.53103 785 ft 168 kts 272°
2026-04-30 19:54 52.63582 0.52354 539 ft 119 kts 24°
2026-04-30 19:55 52.64043 0.53167 373 ft 115 kts 63°
2026-04-30 19:55 52.64320 0.53975 328 ft 51 kts 76°
2026-04-30 19:55 52.64422 0.54554 300 ft 41 kts 81°
2026-04-30 19:55 52.64429 0.54616 212 ft 1 kts 82°
2026-04-30 19:56 52.64425 0.54620 147 ft 1 kts 101°
2026-04-30 19:56 52.64427 0.54625 94 ft 1 kts 101°
2026-04-30 19:56 52.64425 0.54628 82 ft 0 kts 101°
2026-04-30 19:56 52.64407 0.54665 84 ft 10 kts 149°
2026-04-30 19:57 52.64323 0.54754 82 ft 15 kts 170°
2026-04-30 19:57 52.64249 0.54649 81 ft 14 kts 205°
2026-04-30 19:57 52.64153 0.54627 81 ft 14 kts 183°
2026-04-30 19:57 52.64056 0.54612 81 ft 14 kts 184°
2026-04-30 19:58 52.63973 0.54580 85 ft 11 kts 240°
2026-04-30 19:58 52.63977 0.54445 81 ft 17 kts 275°
2026-04-30 19:58 52.63990 0.54204 81 ft 22 kts 274°
2026-04-30 19:58 52.64011 0.54037 83 ft 7 kts 343°
2026-04-30 19:59 52.64023 0.54010 83 ft 1 kts 242°
2026-04-30 19:59 52.64015 0.54008 82 ft 0 kts 187°
2026-04-30 20:01 52.64021 0.54009 83 ft 0 kts 182°